Regional Weather Roundup
Issued by NWS

Home | Current Version | Previous Version | Text Only | Print | Product List | Glossary Off
Versions: 1 2 3 4 5 6 7 8 9 10 11 12 13 14 15 16 17 18 19 20 21 22 23 24 25 26 27 28 29 30 31 32 33 34 35 36 37 38 39 40 41 42 43 44 45 46 47 48 49 50

000
ASUS43 KFSD 030602
RWRSD

WEATHER ROUNDUP FOR SOUTH DAKOTA
NATIONAL WEATHER SERVICE SIOUX FALLS SD
100 AM CDT SUN MAY 03 2015

NOTE: "FAIR" INDICATES FEW OR NO CLOUDS BELOW 12,000 FEET WITH NO
SIGNIFICANT WEATHER AND/OR OBSTRUCTIONS TO VISIBILITY.


SDZ001>005-009-010-012>017-030700-
NORTHWEST AND NORTH CENTRAL SOUTH DAKOTA

CITY           SKY/WX    TMP DP  RH WIND       PRES   REMARKS
BUFFALO          N/A     60  30  32 N20       29.71R
FAITH            N/A     58  27  30 NE5       29.71S
MOBRIDGE       PTCLDY    59  32  36 NE10      29.65S
$$

SDZ012>016-024>037-041>051-057-063-072>074-030700-
SOUTHWEST AND SOUTH CENTRAL SOUTH DAKOTA

CITY           SKY/WX    TMP DP  RH WIND       PRES   REMARKS
RAPID CTY ARPT MOCLDY    52  32  46 NW7       29.76R
PIERRE         CLEAR     60  32  34 NE6       29.66F
CUSTER         MOCLDY    46  29  51 CALM      29.87S
ELLSWORTH AFB  PTCLDY    49  33  53 NW7       29.75R
PHILIP         CLEAR     56  30  37 CALM      29.69S
PINE RIDGE     MOCLDY    51  39  63 S6        29.77R
WINNER         FAIR      61  38  42 N8        29.68R
$$

SDZ004>011-016>023-039-040-030700-
NORTHEAST SOUTH DAKOTA

CITY           SKY/WX    TMP DP  RH WIND       PRES   REMARKS
ABERDEEN       MOCLDY    60  48  64 CALM      29.65R
WATERTOWN      CLOUDY    64  53  67 S10       29.69R
BROOKINGS      CLEAR     63  54  72 S15       29.69F
SISSETON         N/A     65  54  67 SW14      29.64R
$$

SDZ017-020-022-023-036>040-048>070-030700-
SOUTHEAST SOUTH DAKOTA

CITY           SKY/WX    TMP DP  RH WIND       PRES   REMARKS
SIOUX FALLS    MOCLDY    63  54  72 S10G18    29.70F
HURON          MOCLDY    65  52  62 NW13      29.69R
MITCHELL       CLOUDY    66  56  70 S15       29.66S
YANKTON        CLOUDY    63  54  72 S3        29.71R
$$

ABBREVIATIONS USED IN REMARKS
   TC - TEMPERATURE IN CELSIUS
  WCI - WIND CHILL INDEX
   HX - HEAT INDEX
  VSB - VISIBILITY



USA.gov is the U.S. government's official web portal to all federal, state and local government web resources and services.